Torna al catalogo

IUS DEB

AttivoHEO
NORAD 29037·DEBRIS·🇺🇸 United States

Lanciato Jul 23, 1999 da Cape Canaveral Space Force Station

Loading…

Prossimi Passaggi (prossime 24 ore)

TLE

AggiornatoSource: Space-Track

Epoca: Sep 13, 2026, 21:09 UTC

1 29037U 99040G   26256.88173646  .00004913  00000-0  74787-3 0  9990
2 29037  28.4419 106.5484 4372249 131.8677 274.7859  6.68912797277444

Traccia IUS DEB in tempo reale con AllMySat

Download on the App Store